User: anonymous   Login
Location: Dompnac
(44.5644°N, 4.1026°E)
Time: 06:31:47
(UTC+00:00)
Language:

H-2A R/B - Orbit

View from above orbital plane
View from above orbital plane
View from above satellite
View from above satellite

Ground track
Ground track

The orbit data is extracted from the following two-line orbital elements,

1 27601U 02056E   20339.31116716  .00000100  00000-0  50806-4 0  9996
2 27601  98.2089   6.1970 0073082 131.0987 240.6846 14.31988098938995
Epoch (UTC): 04 December 2020 07:28:04
Eccentricity: 0.0073082
inclination: 98.2089°
perigee height: 733 km
apogee height: 837 km
right ascension of ascending node: 6.1970°
argument of perigee: 131.0987°
revolutions per day: 14.31988098
mean anomaly at epoch: 240.6846°
orbit number at epoch: 93899

The dashed part of the orbit path shows where the satellite is in the earth's shadow,  

DLR